When you browse on this site, cookies collect data to enhance your experience and personalize the content and advertising you see.
Visit our Privacy Policy to learn more. By continuing to use the site, you agree to this use of cookies and data.
  • In Czech Republic
  • List of Countries
  • For 7 days
  • Water Temperature
  • Satellite Maps
  • Weather Map
  • Weather Widgets
  • user-avatar
    Login

    Hourly Weather Aviles

    Today, 16 January, Wednesday

    Time Temperature Precipitation Wind Pressure Humidity
    00:00 +9°C° 0 mm 1 mps 760 mmHg 78%
    01:00 +9°C° 0 mm 1 mps 760 mmHg 76%
    02:00 +8°C° 0 mm 2 mps 760 mmHg 75%
    03:00 +8°C° 0 mm 2 mps 760 mmHg 73%
    04:00 +8°C° 0 mm 2 mps 759 mmHg 74%
    05:00 +8°C° 0 mm 2 mps 759 mmHg 74%
    06:00 +8°C° 0 mm 2 mps 759 mmHg 75%
    07:00 +8°C° 0 mm 2 mps 759 mmHg 73%
    08:00 +8°C° 0 mm 2 mps 759 mmHg 71%
    09:00 +9°C° 0 mm 3 mps 760 mmHg 70%
    10:00 +11°C° 0 mm 3 mps 759 mmHg 65%
    11:00 +12°C° 0 mm 3 mps 759 mmHg 61%
    12:00 +14°C° 0 mm 3 mps 759 mmHg 56%
    13:00 +14°C° 0 mm 3 mps 759 mmHg 60%
    14:00 +14°C° 0 mm 3 mps 759 mmHg 63%
    15:00 +13°C° 0 mm 4 mps 758 mmHg 66%
    16:00 +12°C° 0 mm 3 mps 759 mmHg 73%
    17:00 +11°C° 0 mm 3 mps 759 mmHg 79%
    18:00 +10°C° 0 mm 3 mps 759 mmHg 85%
    19:00 +10°C° 0.1 mm 3 mps 760 mmHg 85%
    20:00 +10°C° 0.1 mm 3 mps 760 mmHg 85%
    21:00 +10°C° 0.1 mm 3 mps 761 mmHg 85%
    22:00 +9°C° 0.7 mm 3 mps 761 mmHg 88%
    23:00 +9°C° 0.7 mm 3 mps 761 mmHg 91%

    Tomorrow, 17 January, Thursday

    Time Temperature Precipitation Wind Pressure Humidity
    00:00 +9°C° 0.7 mm 3 mps 761 mmHg 94%
    01:00 +9°C° 0.3 mm 3 mps 762 mmHg 93%
    02:00 +9°C° 0.3 mm 3 mps 762 mmHg 93%
    03:00 +9°C° 0.3 mm 3 mps 762 mmHg 92%
    04:00 +8°C° 0.1 mm 3 mps 762 mmHg 92%
    05:00 +7°C° 0.1 mm 3 mps 762 mmHg 92%
    06:00 +7°C° 0.1 mm 3 mps 762 mmHg 92%
    07:00 +7°C° 0.2 mm 3 mps 763 mmHg 91%
    08:00 +7°C° 0.2 mm 3 mps 763 mmHg 90%
    09:00 +7°C° 0.2 mm 3 mps 764 mmHg 89%
    10:00 +8°C° 0.2 mm 2 mps 764 mmHg 83%
    11:00 +9°C° 0.2 mm 2 mps 764 mmHg 76%
    12:00 +12°C° 0.2 mm 2 mps 764 mmHg 70%
    13:00 +12°C° 0.2 mm 2 mps 764 mmHg 70%
    14:00 +12°C° 0.2 mm 1 mps 763 mmHg 70%
    15:00 +12°C° 0.2 mm 1 mps 763 mmHg 69%
    16:00 +10°C° 0.1 mm 1 mps 764 mmHg 76%
    17:00 +9°C° 0.1 mm 1 mps 764 mmHg 82%
    18:00 +8°C° 0.1 mm 1 mps 765 mmHg 89%
    19:00 +7°C° 0 mm 1 mps 765 mmHg 90%
    20:00 +7°C° 0 mm 1 mps 765 mmHg 91%
    21:00 +6°C° 0 mm 2 mps 765 mmHg 92%
    22:00 +5°C° 0 mm 2 mps 765 mmHg 90%
    23:00 +5°C° 0 mm 2 mps 764 mmHg 89%

    Day after tomorrow, 18 January, Friday

    Time Temperature Precipitation Wind Pressure Humidity
    00:00 +5°C° 0 mm 2 mps 764 mmHg 87%
    01:00 +5°C° 0 mm 2 mps 764 mmHg 86%
    02:00 +5°C° 0 mm 2 mps 764 mmHg 84%
    03:00 +5°C° 0 mm 2 mps 764 mmHg 83%
    04:00 +5°C° 0 mm 2 mps 763 mmHg 80%
    05:00 +6°C° 0 mm 2 mps 763 mmHg 77%
    06:00 +6°C° 0 mm 2 mps 762 mmHg 74%
    07:00 +6°C° 0.1 mm 2 mps 762 mmHg 74%
    08:00 +7°C° 0.1 mm 2 mps 762 mmHg 74%
    09:00 +7°C° 0.1 mm 2 mps 762 mmHg 74%
    10:00 +8°C° 0.5 mm 2 mps 762 mmHg 76%
    11:00 +8°C° 0.5 mm 2 mps 761 mmHg 77%
    12:00 +9°C° 0.5 mm 2 mps 761 mmHg 79%
    13:00 +9°C° 0.2 mm 2 mps 761 mmHg 78%
    14:00 +10°C° 0.2 mm 2 mps 760 mmHg 78%
    15:00 +10°C° 0.2 mm 2 mps 759 mmHg 77%
    16:00 +10°C° 0.2 mm 2 mps 760 mmHg 80%
    17:00 +9°C° 0.2 mm 2 mps 760 mmHg 84%
    18:00 +9°C° 0.2 mm 2 mps 760 mmHg 87%
    19:00 +9°C° 0.1 mm 3 mps 760 mmHg 87%
    20:00 +9°C° 0.1 mm 3 mps 760 mmHg 86%
    21:00 +9°C° 0.1 mm 3 mps 760 mmHg 86%
    22:00 +9°C° 0 mm 3 mps 760 mmHg 87%
    23:00 +7°C° 0 mm 4 mps 760 mmHg 88%

    19 January, Saturday

    Time Temperature Precipitation Wind Pressure Humidity
    00:00 +7°C° 0 mm 4 mps 760 mmHg 89%
    01:00 +8°C° 0 mm 3 mps 760 mmHg 89%
    02:00 +8°C° 0 mm 3 mps 759 mmHg 88%
    03:00 +8°C° 0 mm 3 mps 759 mmHg 87%
    04:00 +8°C° 0 mm 3 mps 759 mmHg 87%
    05:00 +8°C° 0 mm 3 mps 758 mmHg 86%
    06:00 +8°C° 0 mm 2 mps 758 mmHg 85%
    07:00 +8°C° 0.4 mm 2 mps 758 mmHg 86%
    08:00 +9°C° 0.4 mm 1 mps 757 mmHg 88%
    09:00 +9°C° 0.4 mm 1 mps 757 mmHg 89%
    10:00 +9°C° 1.9 mm 1 mps 756 mmHg 90%
    11:00 +8°C° 1.9 mm 2 mps 756 mmHg 91%
    12:00 +8°C° 1.9 mm 2 mps 755 mmHg 93%
    13:00 +8°C° 2.6 mm 3 mps 754 mmHg 93%
    14:00 +9°C° 2.6 mm 3 mps 753 mmHg 94%
    15:00 +9°C° 2.6 mm 3 mps 752 mmHg 94%
    16:00 +9°C° 1.2 mm 3 mps 752 mmHg 95%
    17:00 +8°C° 1.2 mm 2 mps 753 mmHg 96%
    18:00 +9°C° 1.2 mm 1 mps 753 mmHg 97%
    19:00 +9°C° 0.2 mm 1 mps 754 mmHg 97%
    20:00 +9°C° 0.2 mm 2 mps 755 mmHg 97%
    21:00 +9°C° 0.2 mm 2 mps 756 mmHg 97%
    22:00 +9°C° 0.5 mm 2 mps 757 mmHg 96%
    23:00 +9°C° 0.5 mm 2 mps 757 mmHg 96%

    20 January, Sunday

    Time Temperature Precipitation Wind Pressure Humidity
    00:00 +8°C° 0.5 mm 3 mps 758 mmHg 96%
    01:00 +8°C° 1 mm 3 mps 758 mmHg 95%
    02:00 +8°C° 1 mm 3 mps 758 mmHg 94%
    03:00 +8°C° 1 mm 3 mps 759 mmHg 94%
    04:00 +8°C° 0.6 mm 3 mps 759 mmHg 94%
    05:00 +8°C° 0.6 mm 3 mps 759 mmHg 93%
    06:00 +8°C° 0.6 mm 3 mps 760 mmHg 93%
    07:00 +8°C° 0.4 mm 3 mps 760 mmHg 93%
    08:00 +8°C° 0.4 mm 3 mps 761 mmHg 92%
    09:00 +8°C° 0.4 mm 3 mps 761 mmHg 92%
    10:00 +9°C° 0.4 mm 3 mps 761 mmHg 89%
    11:00 +10°C° 0.4 mm 3 mps 762 mmHg 87%
    12:00 +11°C° 0.4 mm 3 mps 762 mmHg 84%
    13:00 +10°C° 0.9 mm 3 mps 762 mmHg 86%
    14:00 +10°C° 0.9 mm 3 mps 762 mmHg 87%
    15:00 +10°C° 0.9 mm 3 mps 762 mmHg 88%
    16:00 +10°C° 1 mm 3 mps 763 mmHg 90%
    17:00 +9°C° 1 mm 3 mps 763 mmHg 92%
    18:00 +9°C° 1 mm 3 mps 764 mmHg 94%
    19:00 +8°C° 0.8 mm 3 mps 764 mmHg 94%
    20:00 +8°C° 0.8 mm 2 mps 764 mmHg 94%
    21:00 +8°C° 0.8 mm 2 mps 765 mmHg 95%
    22:00 +8°C° 0.8 mm 2 mps 765 mmHg 95%
    23:00 +8°C° 0.8 mm 2 mps 765 mmHg 95%

    21 January, Monday

    Time Temperature Precipitation Wind Pressure Humidity
    00:00 +8°C° 0.8 mm 2 mps 765 mmHg 95%
    01:00 +8°C° 0.9 mm 2 mps 765 mmHg 95%
    02:00 +8°C° 0.9 mm 2 mps 765 mmHg 96%
    03:00 +8°C° 0.9 mm 2 mps 766 mmHg 96%
    04:00 +8°C° 0.9 mm 2 mps 766 mmHg 96%
    05:00 +8°C° 0.9 mm 2 mps 766 mmHg 96%
    06:00 +8°C° 0.9 mm 2 mps 766 mmHg 95%
    07:00 +8°C° 0.6 mm 2 mps 766 mmHg 94%
    08:00 +8°C° 0.6 mm 2 mps 767 mmHg 94%
    09:00 +8°C° 0.6 mm 2 mps 767 mmHg 93%
    10:00 +8°C° 0.6 mm 2 mps 767 mmHg 92%
    11:00 +8°C° 0.6 mm 3 mps 767 mmHg 91%
    12:00 +9°C° 0.6 mm 3 mps 767 mmHg 90%
    13:00 +9°C° 0.5 mm 3 mps 767 mmHg 89%
    14:00 +9°C° 0.5 mm 3 mps 767 mmHg 88%
    15:00 +8°C° 0.5 mm 4 mps 767 mmHg 87%
    16:00 +8°C° 0.7 mm 3 mps 767 mmHg 88%
    17:00 +8°C° 0.7 mm 3 mps 768 mmHg 90%
    18:00 +7°C° 0.7 mm 3 mps 768 mmHg 92%
    19:00 +7°C° 0.6 mm 3 mps 769 mmHg 92%
    20:00 +7°C° 0.6 mm 3 mps 769 mmHg 92%
    21:00 +7°C° 0.6 mm 2 mps 770 mmHg 92%
    22:00 +7°C° 0.3 mm 2 mps 769 mmHg 92%
    23:00 +7°C° 0.3 mm 2 mps 769 mmHg 92%
    Show more